QPF
0.00 0.00 0.00 0.00 0.00 0.00 0.00 0.00 0.00 0.00 0.00 0.00 0.00 0.01 0.02 0.02 0.01 0.01 0.01 0.01 0.02 0.05 0.08 0.13 0.25 0.34 0.36 0.31 0.26 0.19 0.11 0.07 0.06 0.05 0.06 0.07 0.09 0.08 0.09 0.11 0.12 0.12 0.10 0.10
0.00 0.00 0.00 0.00 0.00 0.00 0.00 0.00 0.00 0.00 0.01 0.00 0.01 0.03 0.05 0.03 0.02 0.02 0.02 0.02 0.05 0.08 0.15 0.26 0.38 0.51 0.55 0.50 0.46 0.35 0.23 0.16 0.12 0.10 0.09 0.09 0.11 0.14 0.15 0.15 0.18 0.20 0.19 0.18
0.00 0.00 0.00 0.00 0.00 0.00 0.00 0.00 0.00 0.00 0.01 0.01 0.01 0.05 0.07 0.06 0.05 0.04 0.03 0.05 0.11 0.18 0.35 0.56 0.65 0.65 0.66 0.61 0.56 0.46 0.35 0.27 0.23 0.20 0.17 0.15 0.16 0.19 0.20 0.20 0.23 0.25 0.23 0.24
0.00 0.00 0.00 0.00 0.00 0.00 0.00 0.00 0.00 0.00 0.01 0.02 0.01 0.04 0.07 0.07 0.07 0.05 0.06 0.06 0.10 0.19 0.38 0.60 0.74 0.84 0.84 0.72 0.66 0.56 0.41 0.30 0.25 0.24 0.22 0.19 0.19 0.21 0.22 0.25 0.25 0.27 0.28 0.28
0.00 0.00 0.00 0.00 0.00 0.00 0.00 0.00 0.00 0.00 0.01 0.03 0.02 0.04 0.08 0.08 0.10 0.10 0.09 0.06 0.08 0.15 0.26 0.41 0.53 0.70 0.80 0.77 0.69 0.57 0.44 0.36 0.33 0.34 0.31 0.31 0.32 0.31 0.31 0.31 0.32 0.33 0.33 0.33
0.00 0.00 0.00 0.00 0.00 0.00 0.00 0.00 0.00 0.00 0.00 0.01 0.01 0.02 0.07 0.09 0.17 0.24 0.16 0.09 0.07 0.10 0.14 0.20 0.27 0.36 0.49 0.55 0.63 0.59 0.46 0.38 0.38 0.42 0.40 0.38 0.36 0.34 0.33 0.34 0.36 0.40 0.40 0.37
0.01 0.00 0.00 0.00 0.00 0.00 0.00 0.00 0.00 0.00 0.00 0.00 0.00 0.02 0.06 0.10 0.16 0.14 0.10 0.08 0.05 0.04 0.06 0.09 0.10 0.15 0.23 0.31 0.42 0.44 0.41 0.38 0.36 0.38 0.38 0.36 0.37 0.38 0.42 0.47 0.48 0.49 0.45 0.38
0.02 0.02 0.00 0.00 0.00 0.00 0.00 0.00 0.00 0.00 0.01 0.01 0.03 0.07 0.10 0.10 0.11 0.08 0.06 0.04 0.04 0.03 0.03 0.04 0.05 0.07 0.10 0.13 0.20 0.30 0.31 0.35 0.31 0.28 0.28 0.28 0.30 0.33 0.36 0.37 0.38 0.34 0.27 0.24
0.02 0.03 0.01 0.00 0.00 0.00 0.00 0.00 0.00 0.00 0.00 0.01 0.07 0.15 0.25 0.25 0.16 0.12 0.08 0.05 0.03 0.03 0.03 0.03 0.03 0.04 0.04 0.06 0.10 0.13 0.13 0.16 0.23 0.24 0.21 0.21 0.21 0.20 0.20 0.20 0.18 0.17 0.15 0.12
0.01 0.02 0.01 0.00 0.00 0.00 0.00 0.00 0.00 0.00 0.01 0.02 0.06 0.15 0.28 0.37 0.27 0.18 0.10 0.05 0.03 0.03 0.03 0.03 0.03 0.03 0.03 0.04 0.05 0.07 0.08 0.08 0.09 0.10 0.09 0.10 0.12 0.12 0.12 0.11 0.11 0.10 0.08 0.06
0.03 0.02 0.01 0.01 0.01 0.01 0.01 0.01 0.01 0.01 0.02 0.05 0.08 0.17 0.34 0.50 0.48 0.32 0.16 0.08 0.04 0.03 0.03 0.02 0.02 0.02 0.02 0.02 0.03 0.03 0.03 0.03 0.05 0.05 0.04 0.05 0.06 0.06 0.05 0.05 0.05 0.04 0.03 0.03
0.03 0.02 0.02 0.01 0.01 0.01 0.01 0.01 0.01 0.02 0.04 0.08 0.13 0.30 0.53 0.62 0.59 0.42 0.24 0.13 0.06 0.03 0.02 0.02 0.02 0.02 0.02 0.02 0.02 0.02 0.02 0.02 0.02 0.02 0.02 0.02 0.02 0.03 0.03 0.02 0.02 0.02 0.02 0.02
0.03 0.04 0.05 0.04 0.02 0.01 0.02 0.02 0.03 0.05 0.04 0.09 0.14 0.33 0.51 0.48 0.45 0.38 0.26 0.14 0.07 0.04 0.02 0.02 0.02 0.02 0.02 0.02 0.01 0.01 0.02 0.02 0.02 0.02 0.01 0.01 0.01 0.01 0.01 0.01 0.01 0.01 0.01 0.01
0.01 0.04 0.06 0.06 0.04 0.03 0.03 0.05 0.04 0.02 0.04 0.09 0.12 0.17 0.25 0.29 0.29 0.25 0.19 0.11 0.06 0.04 0.03 0.03 0.02 0.02 0.02 0.01 0.01 0.01 0.01 0.01 0.01 0.01 0.01 0.01 0.01 0.01 0.00 0.00 0.00 0.00 0.00 0.00
0.02 0.06 0.07 0.05 0.04 0.04 0.05 0.04 0.04 0.03 0.04 0.06 0.09 0.12 0.19 0.24 0.19 0.14 0.10 0.08 0.06 0.03 0.03 0.03 0.02 0.02 0.01 0.01 0.01 0.00 0.00 0.00 0.00 0.00 0.00 0.00 0.00 0.00 0.00 0.00 0.00 0.00 0.00 0.00
0.02 0.04 0.06 0.06 0.04 0.06 0.06 0.06 0.05 0.05 0.05 0.05 0.07 0.10 0.16 0.19 0.16 0.13 0.09 0.05 0.04 0.03 0.03 0.03 0.04 0.03 0.02 0.01 0.01 0.01 0.00 0.01 0.01 0.00 0.00 0.00 0.00 0.00 0.00 0.00 0.00 0.00 0.00 0.00
0.02 0.04 0.07 0.10 0.08 0.09 0.11 0.09 0.07 0.06 0.05 0.05 0.06 0.12 0.13 0.13 0.12 0.09 0.07 0.06 0.05 0.04 0.03 0.04 0.04 0.03 0.02 0.01 0.01 0.01 0.01 0.01 0.01 0.00 0.00 0.00 0.00 0.00 0.00 0.00 0.00 0.00 0.00 0.00
0.01 0.04 0.08 0.09 0.09 0.17 0.13 0.06 0.05 0.04 0.03 0.04 0.04 0.05 0.07 0.09 0.09 0.08 0.07 0.06 0.04 0.03 0.04 0.04 0.03 0.02 0.01 0.01 0.01 0.01 0.01 0.01 0.01 0.00 0.00 0.00 0.00 0.00 0.00 0.00 0.00 0.00 0.00 0.00
0.00 0.02 0.06 0.06 0.08 0.13 0.08 0.05 0.03 0.03 0.02 0.03 0.03 0.03 0.03 0.05 0.06 0.08 0.09 0.09 0.07 0.05 0.04 0.03 0.02 0.01 0.01 0.01 0.01 0.01 0.01 0.01 0.01 0.00 0.00 0.00 0.00 0.00 0.00 0.00 0.00 0.00 0.00 0.00
0.01 0.02 0.03 0.04 0.05 0.08 0.06 0.04 0.02 0.01 0.03 0.06 0.04 0.03 0.02 0.03 0.04 0.06 0.07 0.07 0.06 0.06 0.05 0.04 0.03 0.02 0.02 0.01 0.01 0.01 0.00 0.00 0.00 0.00 0.00 0.00 0.00 0.00 0.00 0.00 0.00 0.00 0.00 0.00
0.00 0.01 0.02 0.02 0.04 0.03 0.02 0.01 0.01 0.02 0.04 0.05 0.03 0.03 0.03 0.05 0.05 0.03 0.03 0.03 0.04 0.04 0.05 0.05 0.04 0.03 0.02 0.01 0.01 0.01 0.01 0.00 0.00 0.00 0.00 0.00 0.00 0.00 0.00 0.00 0.00 0.00 0.00 0.00
0.00 0.00 0.01 0.02 0.02 0.01 0.01 0.01 0.01 0.01 0.01 0.02 0.03 0.04 0.04 0.05 0.02 0.01 0.01 0.02 0.03 0.03 0.04 0.04 0.03 0.03 0.02 0.02 0.01 0.01 0.01 0.00 0.00 0.00 0.00 0.00 0.00 0.00 0.00 0.00 0.00 0.00 0.00 0.00
0.00 0.00 0.00 0.00 0.01 0.00 0.00 0.00 0.00 0.01 0.00 0.01 0.02 0.02 0.01 0.01 0.01 0.02 0.02 0.02 0.02 0.03 0.03 0.02 0.02 0.02 0.02 0.02 0.02 0.01 0.00 0.00 0.00 0.00 0.00 0.00 0.00 0.00 0.00 0.00 0.00 0.00 0.00 0.00
0.00 0.00 0.00 0.00 0.00 0.00 0.00 0.00 0.00 0.00 0.00 0.00 0.00 0.00 0.00 0.00 0.01 0.02 0.02 0.02 0.02 0.02 0.02 0.01 0.01 0.02 0.01 0.02 0.01 0.01 0.00 0.00 0.00 0.00 0.00 0.00 0.00 0.00 0.00 0.00 0.00 0.00 0.00 0.00
0.00 0.00 0.00 0.00 0.00 0.00 0.00 0.00 0.00 0.00 0.00 0.00 0.00 0.00 0.00 0.00 0.01 0.01 0.02 0.02 0.02 0.02 0.02 0.01 0.01 0.01 0.01 0.01 0.01 0.00 0.00 0.00 0.00 0.00 0.00 0.00 0.00 0.00 0.00 0.00 0.00 0.00 0.00 0.00
0.00 0.00 0.00 0.00 0.00 0.00 0.00 0.00 0.00 0.00 0.00 0.00 0.00 0.00 0.00 0.00 0.00 0.01 0.01 0.02 0.02 0.01 0.01 0.01 0.01 0.01 0.00 0.01 0.01 0.01 0.00 0.00 0.00 0.00 0.00 0.00 0.00 0.00 0.00 0.00 0.00 0.00 0.00 0.00
MSLP
1012.41 1013.07 1013.50 1013.66 1013.58 1013.29 1012.85 1012.35 1011.85 1011.42 1011.08 1010.84 1010.69 1010.62 1010.59 1010.57 1010.51 1010.40 1010.22 1009.95 1009.62 1009.23 1008.83 1008.46 1008.16 1007.98 1007.95 1008.09 1008.39 1008.82 1009.36 1009.94 1010.51 1011.04 1011.49 1011.85 1012.13 1012.36 1012.58 1012.81 1013.09 1013.44 1013.86 1014.33
1012.47 1012.96 1013.20 1013.20 1013.00 1012.66 1012.26 1011.87 1011.55 1011.33 1011.21 1011.17 1011.21 1011.27 1011.33 1011.36 1011.33 1011.23 1011.06 1010.83 1010.53 1010.19 1009.84 1009.50 1009.22 1009.02 1008.94 1008.99 1009.18 1009.49 1009.90 1010.37 1010.84 1011.27 1011.65 1011.95 1012.20 1012.40 1012.60 1012.83 1013.12 1013.49 1013.94 1014.46
1012.36 1012.65 1012.69 1012.53 1012.23 1011.89 1011.56 1011.33 1011.23 1011.26 1011.39 1011.60 1011.82 1012.03 1012.19 1012.27 1012.27 1012.20 1012.06 1011.87 1011.64 1011.37 1011.09 1010.81 1010.56 1010.35 1010.23 1010.19 1010.27 1010.45 1010.72 1011.05 1011.40 1011.74 1012.05 1012.30 1012.51 1012.70 1012.89 1013.13 1013.43 1013.81 1014.28 1014.82
1012.17 1012.25 1012.10 1011.80 1011.43 1011.10 1010.89 1010.85 1010.99 1011.29 1011.69 1012.13 1012.54 1012.89 1013.12 1013.25 1013.27 1013.22 1013.11 1012.96 1012.79 1012.61 1012.41 1012.21 1012.00 1011.81 1011.65 1011.55 1011.53 1011.58 1011.72 1011.92 1012.16 1012.41 1012.65 1012.87 1013.07 1013.26 1013.46 1013.71 1014.02 1014.42 1014.89 1015.43
1012.00 1011.88 1011.57 1011.15 1010.75 1010.46 1010.38 1010.53 1010.92 1011.47 1012.12 1012.77 1013.34 1013.79 1014.09 1014.23 1014.26 1014.20 1014.10 1013.99 1013.87 1013.77 1013.66 1013.54 1013.39 1013.24 1013.08 1012.93 1012.82 1012.78 1012.80 1012.89 1013.04 1013.22 1013.42 1013.62 1013.82 1014.03 1014.26 1014.54 1014.87 1015.27 1015.73 1016.25
1011.96 1011.67 1011.22 1010.72 1010.30 1010.07 1010.11 1010.45 1011.05 1011.82 1012.67 1013.48 1014.18 1014.70 1015.02 1015.16 1015.16 1015.08 1014.97 1014.88 1014.81 1014.78 1014.76 1014.72 1014.65 1014.55 1014.40 1014.24 1014.09 1013.97 1013.91 1013.92 1013.99 1014.13 1014.30 1014.51 1014.74 1014.98 1015.25 1015.55 1015.90 1016.30 1016.75 1017.23
1012.09 1011.67 1011.12 1010.56 1010.14 1009.98 1010.13 1010.61 1011.37 1012.30 1013.29 1014.21 1014.98 1015.53 1015.85 1015.96 1015.93 1015.82 1015.70 1015.62 1015.59 1015.62 1015.68 1015.73 1015.75 1015.71 1015.60 1015.45 1015.28 1015.13 1015.01 1014.97 1015.00 1015.11 1015.29 1015.51 1015.77 1016.05 1016.36 1016.69 1017.05 1017.45 1017.87 1018.30
1012.37 1011.86 1011.25 1010.67 1010.26 1010.15 1010.37 1010.95 1011.80 1012.82 1013.89 1014.86 1015.66 1016.21 1016.52 1016.60 1016.54 1016.41 1016.28 1016.22 1016.23 1016.33 1016.46 1016.60 1016.70 1016.74 1016.69 1016.58 1016.42 1016.26 1016.13 1016.06 1016.08 1016.18 1016.36 1016.60 1016.89 1017.21 1017.56 1017.91 1018.28 1018.65 1019.03 1019.41
1012.70 1012.15 1011.53 1010.95 1010.58 1010.50 1010.76 1011.37 1012.26 1013.30 1014.38 1015.36 1016.14 1016.68 1016.98 1017.05 1016.98 1016.86 1016.76 1016.73 1016.79 1016.95 1017.16 1017.38 1017.57 1017.69 1017.71 1017.65 1017.53 1017.40 1017.28 1017.21 1017.23 1017.33 1017.52 1017.78 1018.10 1018.45 1018.80 1019.17 1019.52 1019.86 1020.19 1020.51
1012.95 1012.43 1011.84 1011.31 1010.97 1010.91 1011.18 1011.79 1012.65 1013.65 1014.69 1015.63 1016.39 1016.93 1017.23 1017.32 1017.29 1017.22 1017.17 1017.19 1017.32 1017.55 1017.83 1018.14 1018.40 1018.60 1018.70 1018.71 1018.65 1018.56 1018.47 1018.43 1018.46 1018.58 1018.78 1019.05 1019.38 1019.73 1020.08 1020.42 1020.75 1021.04 1021.31 1021.55
1013.01 1012.57 1012.07 1011.61 1011.33 1011.29 1011.55 1012.10 1012.89 1013.83 1014.79 1015.68 1016.42 1016.96 1017.30 1017.46 1017.51 1017.53 1017.56 1017.67 1017.88 1018.17 1018.53 1018.89 1019.23 1019.49 1019.67 1019.75 1019.77 1019.74 1019.71 1019.71 1019.77 1019.91 1020.11 1020.38 1020.69 1021.02 1021.35 1021.65 1021.92 1022.16 1022.35 1022.52
1012.85 1012.54 1012.16 1011.82 1011.60 1011.58 1011.82 1012.31 1013.01 1013.85 1014.73 1015.57 1016.29 1016.86 1017.27 1017.53 1017.70 1017.84 1017.99 1018.20 1018.48 1018.84 1019.25 1019.66 1020.04 1020.37 1020.61 1020.77 1020.86 1020.90 1020.94 1021.00 1021.10 1021.25 1021.46 1021.72 1022.00 1022.29 1022.56 1022.80 1023.01 1023.17 1023.29 1023.37
1012.49 1012.36 1012.14 1011.92 1011.79 1011.81 1012.02 1012.44 1013.05 1013.79 1014.59 1015.38 1016.10 1016.72 1017.22 1017.61 1017.92 1018.19 1018.46 1018.77 1019.13 1019.53 1019.97 1020.40 1020.81 1021.17 1021.46 1021.69 1021.86 1021.99 1022.10 1022.22 1022.36 1022.54 1022.74 1022.97 1023.21 1023.44 1023.65 1023.82 1023.95 1024.03 1024.08 1024.10
1012.06 1012.11 1012.07 1011.99 1011.95 1012.01 1012.21 1012.57 1013.09 1013.74 1014.46 1015.21 1015.95 1016.62 1017.22 1017.73 1018.18 1018.59 1018.98 1019.37 1019.78 1020.20 1020.64 1021.07 1021.49 1021.86 1022.19 1022.46 1022.70 1022.91 1023.10 1023.28 1023.47 1023.67 1023.87 1024.07 1024.26 1024.42 1024.55 1024.64 1024.70 1024.72 1024.71 1024.68
1011.71 1011.93 1012.05 1012.11 1012.17 1012.27 1012.46 1012.77 1013.22 1013.78 1014.44 1015.16 1015.90 1016.62 1017.31 1017.94 1018.51 1019.03 1019.51 1019.96 1020.39 1020.81 1021.23 1021.63 1022.02 1022.38 1022.73 1023.04 1023.34 1023.61 1023.87 1024.12 1024.35 1024.56 1024.76 1024.92 1025.06 1025.15 1025.21 1025.23 1025.22 1025.19 1025.14 1025.09
1011.55 1011.92 1012.18 1012.36 1012.49 1012.63 1012.82 1013.09 1013.47 1013.97 1014.56 1015.25 1015.99 1016.75 1017.50 1018.21 1018.87 1019.47 1020.01 1020.49 1020.92 1021.32 1021.69 1022.04 1022.39 1022.73 1023.07 1023.41 1023.75 1024.08 1024.40 1024.69 1024.95 1025.18 1025.36 1025.50 1025.58 1025.62 1025.61 1025.57 1025.52 1025.45 1025.39 1025.33
1011.65 1012.12 1012.48 1012.74 1012.94 1013.11 1013.29 1013.53 1013.85 1014.28 1014.83 1015.47 1016.20 1016.97 1017.76 1018.52 1019.24 1019.88 1020.44 1020.93 1021.34 1021.70 1022.01 1022.31 1022.61 1022.92 1023.25 1023.60 1023.96 1024.33 1024.68 1025.01 1025.30 1025.53 1025.69 1025.80 1025.84 1025.83 1025.77 1025.70 1025.62 1025.54 1025.49 1025.46
1011.99 1012.51 1012.92 1013.23 1013.46 1013.64 1013.82 1014.02 1014.30 1014.68 1015.17 1015.77 1016.47 1017.24 1018.03 1018.81 1019.55 1020.21 1020.78 1021.26 1021.64 1021.96 1022.23 1022.48 1022.74 1023.01 1023.33 1023.67 1024.04 1024.42 1024.79 1025.13 1025.43 1025.65 1025.80 1025.88 1025.89 1025.85 1025.77 1025.68 1025.59 1025.53 1025.50 1025.51
1012.46 1012.98 1013.40 1013.72 1013.96 1014.15 1014.31 1014.49 1014.73 1015.07 1015.52 1016.08 1016.74 1017.48 1018.26 1019.04 1019.78 1020.44 1021.01 1021.48 1021.85 1022.14 1022.38 1022.60 1022.82 1023.08 1023.37 1023.70 1024.06 1024.44 1024.81 1025.15 1025.43 1025.65 1025.78 1025.84 1025.84 1025.78 1025.70 1025.62 1025.55 1025.52 1025.53 1025.58
1012.92 1013.40 1013.79 1014.11 1014.34 1014.52 1014.68 1014.85 1015.07 1015.38 1015.79 1016.32 1016.95 1017.66 1018.42 1019.18 1019.91 1020.57 1021.14 1021.61 1021.99 1022.28 1022.52 1022.73 1022.94 1023.17 1023.45 1023.76 1024.11 1024.47 1024.82 1025.14 1025.40 1025.60 1025.72 1025.78 1025.77 1025.73 1025.66 1025.61 1025.58 1025.59 1025.64 1025.74
1013.21 1013.64 1014.00 1014.29 1014.52 1014.70 1014.86 1015.04 1015.26 1015.57 1015.97 1016.47 1017.08 1017.76 1018.50 1019.25 1019.97 1020.64 1021.22 1021.71 1022.10 1022.42 1022.67 1022.90 1023.11 1023.35 1023.61 1023.90 1024.22 1024.55 1024.87 1025.16 1025.40 1025.58 1025.70 1025.76 1025.77 1025.76 1025.73 1025.72 1025.73 1025.79 1025.89 1026.02
1013.26 1013.64 1013.97 1014.24 1014.47 1014.66 1014.85 1015.06 1015.31 1015.64 1016.05 1016.55 1017.15 1017.82 1018.55 1019.29 1020.01 1020.68 1021.28 1021.80 1022.23 1022.58 1022.87 1023.12 1023.36 1023.59 1023.84 1024.11 1024.39 1024.68 1024.96 1025.22 1025.44 1025.61 1025.74 1025.82 1025.87 1025.89 1025.92 1025.96 1026.03 1026.13 1026.25 1026.41
1013.05 1013.39 1013.70 1013.97 1014.22 1014.46 1014.70 1014.96 1015.27 1015.64 1016.09 1016.61 1017.22 1017.89 1018.60 1019.34 1020.06 1020.74 1021.37 1021.92 1022.39 1022.78 1023.11 1023.39 1023.64 1023.88 1024.11 1024.35 1024.60 1024.84 1025.08 1025.31 1025.51 1025.68 1025.82 1025.93 1026.03 1026.12 1026.21 1026.30 1026.42 1026.55 1026.70 1026.85
1012.65 1012.97 1013.28 1013.57 1013.86 1014.16 1014.47 1014.82 1015.21 1015.65 1016.15 1016.72 1017.34 1018.02 1018.73 1019.46 1020.18 1020.87 1021.50 1022.08 1022.58 1023.01 1023.36 1023.66 1023.92 1024.15 1024.37 1024.57 1024.77 1024.97 1025.17 1025.37 1025.56 1025.74 1025.90 1026.06 1026.21 1026.36 1026.51 1026.66 1026.82 1026.97 1027.12 1027.26
1012.16 1012.48 1012.80 1013.13 1013.48 1013.86 1014.27 1014.72 1015.21 1015.73 1016.30 1016.91 1017.57 1018.25 1018.96 1019.68 1020.38 1021.06 1021.69 1022.27 1022.78 1023.22 1023.59 1023.89 1024.15 1024.36 1024.54 1024.71 1024.87 1025.03 1025.19 1025.36 1025.55 1025.74 1025.93 1026.13 1026.34 1026.55 1026.75 1026.94 1027.13 1027.29 1027.43 1027.54
1011.68 1012.01 1012.36 1012.74 1013.17 1013.64 1014.16 1014.72 1015.31 1015.93 1016.57 1017.23 1017.91 1018.60 1019.29 1019.98 1020.66 1021.31 1021.92 1022.48 1022.97 1023.40 1023.76 1024.05 1024.28 1024.46 1024.60 1024.73 1024.85 1024.97 1025.10 1025.26 1025.44 1025.65 1025.87 1026.12 1026.37 1026.62 1026.86 1027.08 1027.28 1027.44 1027.56 1027.63
Thickness
5676 5660 5650 5658 5663 5663 5666 5665 5667 5686 5706 5700 5696 5698 5705 5714 5720 5723 5727 5733 5736 5741 5748 5754 5759 5762 5763 5761 5758 5755 5758 5759 5758 5754 5750 5746 5743 5742 5742 5741 5738 5737 5736 5734
5655 5651 5668 5676 5676 5672 5669 5665 5669 5686 5705 5701 5691 5689 5695 5703 5707 5713 5717 5721 5726 5731 5736 5741 5745 5748 5749 5750 5744 5745 5747 5750 5751 5750 5748 5746 5742 5739 5737 5734 5732 5730 5728 5726
5650 5664 5680 5678 5674 5672 5672 5669 5672 5681 5695 5698 5689 5675 5683 5690 5698 5704 5707 5712 5718 5722 5724 5729 5734 5735 5735 5736 5734 5733 5736 5739 5741 5741 5740 5738 5735 5731 5727 5724 5722 5721 5720 5719
5660 5674 5676 5673 5672 5675 5665 5683 5685 5685 5676 5669 5680 5656 5669 5679 5686 5691 5694 5700 5705 5711 5715 5718 5721 5723 5722 5723 5727 5723 5724 5728 5730 5731 5730 5728 5724 5720 5717 5714 5712 5710 5710 5709
5661 5671 5670 5667 5674 5679 5676 5688 5686 5684 5674 5666 5671 5658 5661 5676 5676 5680 5685 5689 5694 5699 5703 5705 5708 5710 5712 5712 5713 5711 5713 5715 5718 5719 5720 5718 5714 5711 5708 5706 5702 5699 5698 5697
5669 5678 5676 5675 5684 5687 5687 5681 5676 5671 5660 5649 5666 5661 5657 5668 5675 5675 5677 5680 5684 5688 5692 5694 5697 5698 5700 5701 5700 5698 5700 5701 5705 5706 5706 5705 5703 5701 5698 5694 5690 5688 5685 5684
5657 5666 5676 5680 5673 5678 5677 5654 5636 5638 5633 5642 5665 5661 5654 5668 5673 5672 5672 5672 5673 5677 5680 5681 5683 5684 5684 5685 5685 5686 5686 5687 5690 5691 5690 5691 5690 5687 5685 5681 5678 5675 5672 5669
5637 5641 5664 5672 5668 5663 5666 5654 5633 5629 5631 5639 5655 5649 5652 5661 5663 5663 5662 5661 5662 5663 5665 5666 5667 5668 5669 5670 5671 5673 5673 5673 5675 5676 5675 5675 5675 5673 5669 5667 5664 5661 5656 5652
5636 5639 5664 5673 5678 5673 5665 5659 5657 5642 5641 5634 5640 5645 5647 5652 5652 5651 5651 5651 5651 5651 5652 5652 5653 5654 5655 5656 5657 5658 5659 5659 5661 5661 5661 5660 5659 5656 5653 5651 5649 5645 5640 5638
5647 5638 5654 5669 5677 5676 5671 5667 5649 5638 5629 5624 5634 5638 5638 5642 5642 5642 5641 5640 5640 5639 5639 5639 5640 5640 5640 5641 5641 5643 5644 5644 5644 5645 5646 5644 5642 5640 5638 5636 5632 5628 5626 5624
5650 5637 5645 5656 5658 5658 5662 5662 5651 5638 5636 5625 5619 5626 5643 5641 5638 5635 5632 5631 5630 5629 5628 5628 5628 5627 5627 5628 5629 5629 5629 5630 5629 5629 5629 5628 5626 5624 5622 5619 5616 5614 5612 5610
5649 5635 5632 5645 5663 5671 5665 5660 5651 5637 5631 5631 5624 5622 5637 5636 5630 5628 5624 5622 5620 5619 5619 5618 5616 5616 5616 5615 5615 5615 5614 5614 5613 5612 5613 5612 5610 5608 5606 5603 5601 5599 5597 5594
5651 5634 5626 5635 5644 5653 5654 5659 5656 5646 5633 5626 5622 5619 5628 5627 5623 5620 5617 5614 5612 5610 5608 5607 5605 5604 5603 5602 5601 5600 5599 5598 5597 5598 5598 5596 5594 5592 5590 5587 5585 5583 5581 5578
5659 5637 5629 5625 5629 5635 5641 5653 5658 5647 5630 5628 5629 5624 5621 5620 5617 5613 5610 5606 5602 5600 5598 5595 5593 5591 5590 5589 5588 5587 5585 5584 5584 5583 5582 5580 5578 5576 5574 5572 5570 5568 5565 5563
5656 5640 5639 5640 5645 5644 5644 5651 5654 5650 5644 5633 5631 5627 5620 5617 5612 5607 5602 5598 5593 5590 5587 5584 5582 5579 5577 5575 5574 5573 5571 5570 5569 5568 5566 5564 5563 5561 5559 5557 5555 5553 5551 5548
5652 5644 5642 5641 5649 5649 5647 5649 5651 5648 5642 5634 5627 5618 5617 5612 5606 5600 5595 5591 5586 5582 5579 5575 5572 5569 5566 5563 5561 5559 5557 5556 5555 5554 5552 5550 5549 5548 5546 5544 5541 5539 5536 5533
5651 5644 5635 5631 5643 5643 5630 5638 5640 5636 5634 5629 5619 5614 5609 5602 5598 5593 5588 5584 5579 5574 5570 5566 5562 5558 5554 5551 5549 5547 5546 5545 5543 5541 5540 5538 5536 5535 5533 5532 5528 5525 5522 5520
5653 5642 5629 5628 5631 5616 5627 5644 5641 5630 5623 5623 5616 5608 5603 5595 5587 5582 5579 5575 5570 5565 5560 5555 5551 5548 5545 5542 5539 5538 5536 5534 5532 5530 5529 5527 5526 5524 5522 5520 5517 5514 5512 5509
5664 5648 5632 5622 5620 5620 5630 5637 5635 5623 5610 5611 5606 5597 5590 5583 5576 5570 5568 5566 5561 5555 5550 5546 5542 5539 5536 5533 5531 5529 5526 5525 5523 5521 5519 5517 5516 5514 5512 5510 5507 5505 5503 5500
5663 5652 5637 5626 5619 5613 5624 5638 5640 5624 5602 5604 5600 5591 5583 5577 5569 5563 5559 5556 5551 5546 5542 5538 5534 5530 5527 5525 5523 5520 5517 5515 5513 5512 5511 5509 5507 5505 5504 5502 5500 5498 5495 5492
5651 5645 5636 5626 5619 5620 5632 5639 5635 5610 5602 5600 5595 5587 5579 5573 5568 5559 5553 5547 5542 5538 5534 5530 5526 5522 5519 5517 5515 5511 5509 5507 5506 5505 5503 5501 5500 5498 5497 5495 5493 5491 5488 5484
5646 5638 5632 5625 5614 5615 5633 5633 5620 5611 5607 5598 5589 5582 5574 5567 5560 5553 5546 5540 5535 5531 5527 5523 5519 5515 5513 5511 5508 5504 5501 5501 5500 5498 5496 5495 5493 5493 5491 5488 5485 5483 5480 5476
5651 5645 5633 5626 5620 5625 5629 5625 5619 5613 5603 5593 5584 5577 5571 5562 5554 5547 5540 5534 5529 5525 5521 5517 5513 5509 5506 5504 5502 5498 5496 5496 5495 5492 5490 5488 5487 5485 5483 5481 5478 5474 5471 5468
5656 5652 5638 5627 5625 5625 5623 5620 5614 5609 5600 5591 5583 5574 5567 5557 5549 5541 5534 5528 5524 5519 5515 5511 5507 5503 5500 5498 5497 5494 5493 5491 5489 5486 5484 5483 5481 5478 5476 5474 5472 5468 5465 5462
5660 5653 5638 5627 5625 5622 5618 5614 5609 5601 5593 5584 5576 5569 5561 5553 5544 5537 5530 5524 5519 5515 5510 5506 5502 5498 5495 5493 5491 5490 5488 5486 5483 5481 5479 5477 5475 5473 5470 5468 5465 5463 5461 5459
5664 5654 5641 5632 5633 5624 5614 5612 5607 5597 5588 5580 5571 5562 5555 5549 5540 5533 5526 5521 5516 5511 5506 5502 5498 5495 5492 5490 5487 5486 5484 5481 5478 5476 5474 5472 5471 5468 5466 5463 5460 5459 5458 5457